Rantoul, IL

5:21 AM CDT on October 16, 2019 (GMT -0500)
Rantoul

Weather History for KTIP - September, 2019

Change the Weather History Date:

Tuesday, September 17, 2019

  Actual Average (WUND) Record (WUND)
Temperature  
Mean Temperature 72 °F -  
Max Temperature 82 °F - - (-1)
Min Temperature 62 °F - - (-1)
Cooling Degree Days 7    
Growing Degree Days 22 (Base 50)    
Moisture  
Dew Point 64 °F    
Average Humidity 83    
Maximum Humidity 100    
Minimum Humidity 51    
Precipitation  
Precipitation 0.00 in - - ()
Sea Level Pressure  
Sea Level Pressure 30.12 in    
Wind  
Wind Speed 7 mph (ENE)    
Max Wind Speed 13 mph    
Max Gust Speed -    
Visibility 7 miles    
Events      
Averages and records for this station are not official NWS values.
T = Trace of Precipitation, MM = Missing Value Source: NWS Daily Summary

Daily Weather History Graph

Daily Weather History Graph

Search for Another Location

Airport or City:

Astronomy

Sep. 17, 2019 Rise Set
Actual Time 6:35 AM CDT 6:58 PM CDT
Civil Twilight 6:07 AM CDT 7:25 PM CDT
Nautical Twilight 5:35 AM CDT 7:57 PM CDT
Astronomical Twilight 5:02 AM CDT 8:30 PM CDT
Moon 9:01 PM CDT (9/17) 9:39 AM CDT (9/17)
Length of Visible Light 13h 17m
Length of Day
12h 23m
Waning Gibbous, 89% of the Moon is Illuminated
Sep 17
Waning Gibbous
Sep 21
Last Quarter
Sep 28
New
Oct 5
First Quarter
Oct 13
Full

Hourly Weather History & Observations

Time (CDT) Temp. Heat Index Dew Point Humidity Pressure Visibility Wind Dir Wind Speed Gust Speed Precip Events Conditions
12:15 AM 65.3 °F - 64.9 °F 99% 30.11 in 4.0 mi ENE 9.2 mph - N/A   Clear
12:35 AM 64.8 °F - 64.6 °F 99% 30.11 in 4.0 mi ENE 9.2 mph - N/A   Mostly Cloudy
12:50 AM 64.6 °F - 64.4 °F 99% 30.11 in 3.0 mi ENE 8.1 mph - N/A   Overcast
1:15 AM 64.6 °F - 64.4 °F 99% 30.11 in 2.5 mi NE 8.1 mph - N/A   Overcast
1:35 AM 64.4 °F - 64.2 °F 99% 30.12 in 3.0 mi ENE 8.1 mph - N/A   Overcast
1:55 AM 64.4 °F - 64.0 °F 99% 30.11 in 3.0 mi NE 6.9 mph - N/A   Scattered Clouds
2:15 AM 64.4 °F - 63.9 °F 98% 30.11 in 3.0 mi NE 8.1 mph - N/A   Clear
2:35 AM 63.9 °F - 63.7 °F 99% 30.11 in 3.0 mi NE 8.1 mph - N/A   Mostly Cloudy
2:55 AM 63.9 °F - 63.7 °F 99% 30.11 in 3.0 mi ENE 6.9 mph - N/A   Scattered Clouds
3:15 AM 63.7 °F - 63.5 °F 99% 30.11 in 3.0 mi ENE 8.1 mph - N/A   Mostly Cloudy
3:35 AM 63.7 °F - 63.5 °F 99% 30.12 in 1.5 mi NE 6.9 mph - N/A   Overcast
3:55 AM 63.9 °F - 63.5 °F 99% 30.12 in 2.0 mi NE 6.9 mph - N/A   Overcast
4:15 AM 63.7 °F - 63.5 °F 99% 30.12 in 3.0 mi NE 5.8 mph - N/A   Overcast
4:35 AM 63.5 °F - 63.5 °F 100% 30.12 in 2.5 mi NE 6.9 mph - N/A   Overcast
4:55 AM 63.5 °F - 63.5 °F 100% 30.12 in 2.5 mi NE 5.8 mph - N/A   Overcast
5:15 AM 63.5 °F - 63.1 °F 99% 30.13 in 2.5 mi NE 5.8 mph - N/A   Overcast
5:35 AM 63.3 °F - 63.0 °F 99% 30.14 in 3.0 mi NE 5.8 mph - N/A   Overcast
5:55 AM 63.1 °F - 62.8 °F 99% 30.14 in 3.0 mi NE 4.6 mph - N/A   Overcast
6:15 AM 62.8 °F - 62.6 °F 99% 30.14 in 3.0 mi ENE 4.6 mph - N/A   Overcast
6:35 AM 63.0 °F - 62.6 °F 99% 30.14 in 2.0 mi NE 6.9 mph - N/A   Overcast
6:55 AM 62.8 °F - 62.6 °F 99% 30.15 in 1.8 mi ENE 6.9 mph - N/A   Overcast
7:15 AM 63.0 °F - 62.8 °F 99% 30.15 in 1.8 mi ENE 6.9 mph - N/A   Overcast
7:35 AM 63.1 °F - 63.0 °F 99% 30.16 in 2.0 mi ENE 5.8 mph - N/A   Overcast
7:55 AM 63.9 °F - 63.7 °F 99% 30.16 in 2.5 mi ENE 6.9 mph - N/A   Overcast
8:15 AM 64.4 °F - 64.0 °F 99% 30.16 in 3.0 mi NE 5.8 mph - N/A   Overcast
8:35 AM 65.3 °F - 64.9 °F 99% 30.17 in 4.0 mi ENE 6.9 mph - N/A   Mostly Cloudy
8:55 AM 66.4 °F - 66.0 °F 99% 30.16 in 4.0 mi ENE 10.4 mph - N/A   Mostly Cloudy
9:15 AM 66.4 °F - 65.7 °F 98% 30.17 in 4.0 mi ENE 8.1 mph - N/A   Mostly Cloudy
9:35 AM 68.5 °F - 65.8 °F 91% 30.16 in 5.0 mi ENE 5.8 mph - N/A   Scattered Clouds
9:55 AM 70.3 °F - 66.4 °F 87% 30.16 in 10.0 mi ENE 5.8 mph - N/A   Clear
10:15 AM 72.0 °F - 66.2 °F 82% 30.16 in 10.0 mi East 9.2 mph - N/A   Clear
10:35 AM 72.9 °F - 66.2 °F 80% 30.16 in 10.0 mi ENE 8.1 mph - N/A   Clear
10:55 AM 74.5 °F - 66.4 °F 76% 30.16 in 10.0 mi East 5.8 mph - N/A   Clear
11:15 AM 75.9 °F - 66.0 °F 71% 30.16 in 10.0 mi ENE 5.8 mph - N/A   Clear
11:35 AM 76.3 °F - 65.8 °F 70% 30.16 in 10.0 mi East 8.1 mph - N/A   Clear
11:55 AM 78.1 °F - 66.0 °F 66% 30.16 in 10.0 mi East 6.9 mph - N/A   Clear
12:15 PM 79.2 °F - 65.7 °F 63% 30.15 in 10.0 mi SE 5.8 mph - N/A   Clear
12:35 PM 79.5 °F - 65.3 °F 62% 30.15 in 10.0 mi East 9.2 mph - N/A   Scattered Clouds
12:55 PM 80.8 °F 82.5 °F 64.6 °F 58% 30.14 in 10.0 mi ESE 5.8 mph - N/A   Scattered Clouds
1:15 PM 80.6 °F 82.4 °F 64.9 °F 59% 30.13 in 10.0 mi ENE 12.7 mph - N/A   Scattered Clouds
1:35 PM 80.6 °F 82.3 °F 64.6 °F 58% 30.13 in 10.0 mi ENE 9.2 mph - N/A   Clear
1:55 PM 81.5 °F 82.9 °F 63.9 °F 55% 30.12 in 10.0 mi East 9.2 mph - N/A   Clear
2:15 PM 81.9 °F 83.4 °F 64.2 °F 55% 30.11 in 10.0 mi East 9.2 mph - N/A   Clear
2:35 PM 81.7 °F 83.0 °F 63.5 °F 54% 30.11 in 10.0 mi East 9.2 mph - N/A   Clear
2:55 PM 82.2 °F 83.7 °F 63.9 °F 54% 30.10 in 10.0 mi East 9.2 mph - N/A   Clear
3:15 PM 82.6 °F 83.6 °F 63.0 °F 51% 30.10 in 10.0 mi East 6.9 mph - N/A   Clear
3:35 PM 82.4 °F 83.7 °F 63.5 °F 53% 30.10 in 10.0 mi East 10.4 mph - N/A   Clear
3:55 PM 82.8 °F 83.8 °F 63.0 °F 51% 30.10 in 10.0 mi East 6.9 mph - N/A   Clear
4:15 PM 81.7 °F 82.9 °F 63.1 °F 53% 30.09 in 10.0 mi East 9.2 mph - N/A   Clear
4:35 PM 80.1 °F 81.4 °F 62.8 °F 55% 30.09 in 10.0 mi ESE 8.1 mph - N/A   Clear
4:55 PM 79.7 °F - 63.7 °F 58% 30.09 in 10.0 mi East 6.9 mph - N/A   Clear
5:15 PM 79.7 °F - 64.0 °F 59% 30.09 in 10.0 mi ESE 8.1 mph - N/A   Clear
5:35 PM 78.8 °F - 64.0 °F 60% 30.08 in 10.0 mi East 8.1 mph - N/A   Clear
5:55 PM 78.3 °F - 65.3 °F 64% 30.08 in 10.0 mi ESE 9.2 mph - N/A   Clear
6:15 PM 77.9 °F - 65.7 °F 66% 30.08 in 10.0 mi ESE 8.1 mph - N/A   Clear
6:35 PM 76.6 °F - 65.3 °F 68% 30.08 in 10.0 mi East 8.1 mph - N/A   Clear
6:55 PM 74.8 °F - 65.3 °F 72% 30.09 in 10.0 mi East 8.1 mph - N/A   Clear
7:15 PM 73.2 °F - 65.5 °F 77% 30.09 in 10.0 mi East 6.9 mph - N/A   Clear
7:35 PM 72.0 °F - 65.7 °F 80% 30.09 in 10.0 mi East 5.8 mph - N/A   Clear
7:55 PM 70.9 °F - 65.8 °F 84% 30.10 in 10.0 mi East 6.9 mph - N/A   Clear
8:15 PM 69.3 °F - 65.7 °F 88% 30.11 in 10.0 mi East 3.5 mph - N/A   Clear
8:35 PM 67.6 °F - 65.3 °F 92% 30.11 in 10.0 mi East 4.6 mph - N/A   Clear
8:55 PM 67.1 °F - 64.8 °F 92% 30.11 in 10.0 mi ENE 3.5 mph - N/A   Clear
9:15 PM 67.1 °F - 64.6 °F 92% 30.11 in 10.0 mi ENE 5.8 mph - N/A   Clear
9:35 PM 67.1 °F - 64.4 °F 91% 30.11 in 10.0 mi East 5.8 mph - N/A   Clear
9:55 PM 66.6 °F - 64.4 °F 93% 30.10 in 7.0 mi East 5.8 mph - N/A   Clear
10:15 PM 66.2 °F - 63.7 °F 92% 30.10 in 10.0 mi East 5.8 mph - N/A   Clear
10:35 PM 65.5 °F - 63.5 °F 93% 30.11 in 7.0 mi East 5.8 mph - N/A   Clear
10:55 PM 65.3 °F - 63.0 °F 92% 30.11 in 7.0 mi East 4.6 mph - N/A   Clear
11:15 PM 64.9 °F - 62.8 °F 93% 30.11 in 7.0 mi East 4.6 mph - N/A   Clear
11:35 PM 64.6 °F - 62.6 °F 93% 30.11 in 7.0 mi East 3.5 mph - N/A   Clear
11:55 PM 64.4 °F - 62.6 °F 94% 30.11 in 7.0 mi ENE 4.6 mph - N/A   Clear